Dewpoint
-18 -19 -19 -19 -19 -17 -17 -16 -19 -22 -19 -10 -7 -7 -6 -6 -6 -5 -5 -5 -5 -4 -4 -4 -4 -3 -3
-15 -15 -14 -13 -13 -13 -14 -16 -19 -20 -17 -11 -8 -8 -7 -7 -6 -6 -6 -6 -6 -5 -5 -5 -4 -4 -4
-11 -11 -10 -10 -10 -11 -13 -14 -16 -16 -13 -12 -12 -13 -10 -7 -7 -6 -7 -7 -7 -6 -6 -6 -5 -5 -5
-10 -8 -8 -9 -10 -10 -10 -13 -12 -12 -13 -12 -12 -12 -11 -12 -11 -12 -12 -12 -8 -7 -7 -7 -6 -6 -5
-8 -8 -8 -8 -9 -10 -11 -11 -11 -11 -13 -11 -12 -12 -12 -12 -12 -12 -12 -12 -8 -7 -7 -6 -6 -6 -6
-8 -8 -8 -9 -11 -11 -10 -9 -9 -10 -11 -11 -11 -11 -12 -12 -12 -12 -12 -10 -8 -7 -7 -7 -7 -6 -6
-8 -9 -10 -12 -9 -9 -9 -9 -9 -11 -11 -11 -11 -11 -12 -12 -12 -12 -13 -12 -9 -8 -7 -7 -7 -7 -7
-12 -12 -10 -9 -9 -9 -9 -10 -10 -11 -11 -10 -11 -11 -11 -11 -12 -13 -12 -12 -11 -8 -7 -7 -7 -7 -7
-13 -12 -11 -11 -11 -11 -11 -10 -10 -10 -10 -11 -11 -10 -11 -11 -12 -12 -12 -11 -10 -10 -10 -8 -8 -7 -7
-13 -12 -12 -11 -11 -10 -10 -10 -10 -10 -10 -10 -11 -11 -11 -11 -11 -11 -11 -12 -12 -11 -11 -10 -9 -8 -8
-11 -11 -11 -11 -10 -10 -10 -9 -9 -10 -10 -10 -11 -11 -11 -11 -11 -11 -11 -11 -11 -12 -12 -11 -11 -9 -8
-11 -11 -10 -10 -10 -10 -10 -10 -10 -10 -10 -9 -11 -10 -10 -11 -11 -11 -11 -11 -11 -12 -12 -11 -11 -10 -9
-10 -10 -10 -9 -9 -10 -10 -10 -10 -10 -11 -9 -9 -9 -10 -10 -10 -10 -10 -11 -11 -11 -11 -11 -10 -11 -10
-9 -9 -9 -9 -10 -9 -10 -10 -10 -11 -11 -10 -10 -9 -10 -10 -9 -10 -11 -10 -11 -11 -10 -10 -9 -9 -9
-9 -9 -9 -9 -9 -9 -9 -9 -9 -10 -10 -11 -10 -9 -9 -10 -10 -11 -11 -10 -10 -10 -9 -9 -9 -8 -8
-9 -8 -8 -8 -8 -9 -8 -9 -9 -10 -10 -10 -9 -10 -10 -11 -10 -10 -10 -9 -10 -9 -8 -9 -9 -8 -8
-8 -8 -8 -8 -8 -9 -8 -9 -9 -9 -10 -9 -9 -9 -10 -10 -10 -9 -9 -9 -8 -9 -9 -8 -8 -8 -9
Wind_Speed
32 31 33 35 35 35 35 36 33 30 29 28 26 26 26 28 28 28 29 28 29 30 31 32 31 32 31
34 34 35 34 36 37 37 35 33 29 29 28 27 27 27 27 26 26 28 30 31 31 32 32 32 33 33
35 35 35 35 38 39 40 39 36 30 28 30 28 26 25 25 27 30 32 31 31 31 32 33 33 33 32
33 35 36 37 38 41 43 40 35 30 31 31 24 27 30 31 30 29 30 29 29 30 30 31 32 32 32
32 36 37 38 41 42 40 37 37 34 35 33 36 38 35 34 31 30 28 27 27 29 31 32 34 33 33
30 34 38 40 39 35 35 37 39 35 39 45 38 41 37 35 32 31 30 29 30 30 30 30 31 31 31
33 35 38 33 31 35 34 35 36 43 39 47 42 43 35 35 33 31 29 27 26 27 28 28 28 28 29
30 31 29 29 31 34 37 40 41 38 33 47 43 42 39 39 34 28 22 23 27 25 25 28 30 32 32
24 26 28 29 28 31 33 33 40 41 37 32 41 43 44 40 32 26 29 34 30 30 30 29 29 30 32
26 24 24 26 25 25 28 32 34 40 26 33 41 35 32 36 25 40 39 35 32 31 30 29 29 30 32
25 26 25 25 26 25 25 29 33 37 38 32 41 38 35 43 46 45 42 39 36 34 32 29 26 25 29
26 26 28 27 24 27 29 29 30 34 35 31 36 35 36 41 46 46 43 42 40 37 31 22 20 20 22
24 27 27 27 30 29 29 29 32 31 28 26 28 30 31 36 42 46 45 44 36 31 34 29 27 26 28
25 25 26 29 29 30 32 32 35 35 28 27 28 29 33 35 38 44 42 42 38 33 33 34 31 29 29
23 25 28 30 31 32 33 35 36 37 37 31 28 31 32 33 36 37 36 36 35 36 35 37 34 31 31
22 26 29 32 35 35 34 34 36 37 37 36 37 37 36 37 29 31 37 38 39 39 39 38 40 35 33
22 26 31 34 36 36 35 36 37 37 37 38 38 37 36 38 43 28 29 41 36 35 34 35 39 36 31
Wind_Direction
300 303 303 307 309 311 313 316 310 307 303 298 296 295 293 289 289 287 287 285 283 282 281 280 279 277 276
303 308 309 311 313 314 316 316 314 313 306 302 299 297 293 290 289 287 286 285 284 283 281 278 277 276 276
304 309 310 314 315 315 318 321 319 315 308 307 310 302 297 295 291 287 286 284 282 280 278 277 276 276 275
305 307 309 312 314 319 318 318 318 316 311 313 313 308 306 305 300 298 293 290 284 281 279 277 275 274 273
303 306 308 314 316 317 314 319 317 320 318 317 316 311 312 311 308 301 298 291 287 284 281 278 276 275 273
304 303 305 309 311 314 316 317 313 317 316 308 312 310 312 309 307 306 304 294 287 285 283 280 277 276 273
296 299 303 310 315 315 314 309 302 306 311 307 310 308 313 307 310 309 302 293 289 286 283 280 278 275 272
303 304 308 313 308 302 300 299 300 304 311 304 311 309 313 310 313 312 301 299 301 288 284 282 279 276 272
300 303 306 307 308 305 306 307 306 309 313 304 313 312 312 314 318 319 314 312 302 294 291 284 280 277 274
316 313 314 314 313 310 311 309 311 313 312 309 309 313 314 309 307 308 310 309 307 304 300 292 281 274 268
315 318 320 319 318 317 316 312 308 301 309 307 303 302 297 303 305 309 311 313 310 307 303 297 287 267 266
319 323 324 326 326 324 318 312 307 305 311 308 301 305 304 303 302 310 311 310 309 308 308 301 292 282 269
323 327 330 330 327 326 324 322 316 316 318 316 311 311 304 299 301 305 308 311 308 304 306 303 298 289 282
326 330 333 333 334 335 330 330 323 323 325 324 321 315 308 305 305 302 305 299 309 308 308 304 301 293 287
333 336 336 334 334 335 335 333 327 327 327 329 326 321 316 312 307 306 308 306 310 311 310 307 302 298 293
338 337 335 335 334 336 334 331 331 331 330 333 333 331 328 322 315 312 314 311 315 313 307 297 295 298 294
337 339 338 337 335 334 336 335 333 332 333 336 334 329 311 304 324 311 292 309 311 307 306 299 296 296 297
Height
1475 1474 1469 1466 1462 1458 1453 1449 1445 1443 1438 1434 1432 1430 1428 1426 1423 1420 1419 1416 1415 1413 1411 1410 1409 1408 1408
1467 1464 1461 1459 1454 1450 1446 1442 1438 1435 1431 1427 1425 1421 1418 1416 1414 1412 1410 1407 1404 1403 1401 1400 1399 1398 1397
1458 1456 1453 1452 1446 1442 1437 1433 1430 1427 1423 1419 1416 1412 1409 1408 1406 1403 1399 1396 1394 1392 1390 1389 1388 1387 1386
1454 1451 1448 1445 1441 1434 1428 1427 1422 1420 1415 1411 1408 1405 1402 1399 1395 1391 1388 1385 1382 1380 1379 1378 1377 1376 1375
1450 1446 1442 1438 1434 1429 1422 1418 1414 1412 1405 1402 1400 1396 1392 1388 1385 1381 1379 1375 1373 1372 1370 1368 1367 1366 1365
1446 1441 1436 1433 1428 1423 1418 1413 1404 1405 1400 1394 1393 1387 1385 1380 1376 1372 1369 1366 1364 1362 1360 1358 1356 1355 1354
1439 1436 1430 1428 1423 1417 1414 1408 1403 1399 1394 1382 1384 1377 1377 1370 1368 1364 1360 1357 1354 1352 1351 1348 1346 1345 1344
1434 1429 1426 1423 1419 1414 1408 1401 1396 1392 1391 1374 1373 1367 1364 1360 1359 1355 1352 1350 1346 1344 1342 1339 1337 1334 1333
1428 1425 1421 1417 1413 1406 1401 1395 1386 1382 1381 1373 1364 1358 1353 1348 1346 1346 1343 1340 1337 1334 1330 1327 1325 1323 1320
1421 1418 1415 1411 1407 1403 1396 1390 1385 1374 1373 1369 1359 1356 1343 1338 1337 1336 1333 1331 1326 1322 1319 1316 1314 1312 1308
1415 1412 1408 1405 1401 1397 1392 1387 1380 1372 1368 1364 1353 1351 1347 1333 1325 1324 1322 1318 1314 1310 1308 1305 1302 1300 1298
1410 1406 1402 1398 1394 1391 1386 1381 1375 1367 1361 1358 1349 1345 1338 1329 1319 1314 1312 1308 1304 1299 1296 1293 1292 1292 1291
1406 1402 1397 1392 1388 1383 1378 1372 1366 1361 1355 1350 1344 1337 1332 1324 1315 1307 1302 1297 1295 1289 1287 1284 1282 1281 1279
1402 1398 1393 1387 1382 1377 1370 1365 1357 1350 1347 1343 1337 1331 1324 1318 1311 1300 1296 1290 1285 1282 1278 1273 1271 1269 1267
1398 1393 1388 1382 1377 1372 1365 1358 1351 1343 1336 1334 1330 1324 1317 1311 1302 1294 1286 1281 1276 1271 1268 1262 1259 1257 1255
1394 1390 1384 1378 1372 1365 1360 1354 1346 1338 1331 1326 1319 1311 1305 1298 1295 1285 1278 1272 1266 1262 1258 1253 1247 1246 1244
1391 1387 1381 1374 1368 1361 1354 1347 1340 1333 1327 1320 1313 1307 1299 1289 1283 1282 1273 1264 1259 1254 1250 1246 1239 1234 1233